Temp
16 16 16 17 17 17 18 18 18 19 20 20 20 20 20 20 20 19 19 19 19 19 19 19 18 18 17 17 17 17 18 18 18 18 18 17 17 17 17 16 17 17 18
16 17 17 17 17 18 18 19 19 19 20 20 20 20 20 20 20 19 19 19 19 19 19 19 18 18 18 17 17 18 17 17 17 17 18 18 16 16 17 17 17 17 17
16 17 17 17 18 18 19 19 19 19 20 20 20 20 20 19 19 19 19 19 19 19 19 19 18 18 18 18 18 18 17 17 17 17 17 18 17 16 17 17 17 17 16
17 17 17 17 18 18 19 19 19 19 19 20 20 20 20 19 19 19 19 19 19 18 19 19 18 18 18 18 18 18 17 17 17 17 17 17 17 16 17 17 17 17 16
17 17 18 18 18 19 19 19 19 19 19 20 20 20 20 19 19 19 19 19 19 19 19 19 19 19 19 19 18 17 17 17 17 17 17 17 17 16 17 17 17 16 16
18 18 18 18 18 19 19 19 19 19 19 20 20 19 19 19 19 19 19 19 19 18 18 19 19 19 19 19 18 17 17 17 17 17 17 17 17 17 17 17 16 16 17
18 18 18 18 18 19 19 19 19 19 19 19 19 19 19 19 19 19 19 19 19 18 18 18 19 18 18 18 18 17 17 17 18 18 17 17 18 17 16 16 17 17 17
19 18 18 18 19 19 19 19 19 19 19 19 19 19 19 19 19 19 19 19 19 18 18 18 18 18 18 18 17 18 18 18 18 19 18 18 17 17 18 17 18 17 17
19 19 18 19 18 19 19 19 19 19 19 19 19 19 20 19 19 19 18 19 19 18 19 19 19 18 18 17 17 18 18 18 18 18 18 18 17 17 18 17 18 17 17
19 19 19 19 19 19 19 19 19 19 19 20 20 20 19 19 19 19 19 19 19 19 19 19 19 18 18 17 18 19 19 19 18 19 19 18 18 18 18 18 18 17 17
19 19 19 19 19 19 19 19 19 20 20 20 20 20 19 19 19 19 19 19 19 19 19 18 19 18 18 18 19 18 19 19 18 19 18 19 18 18 18 18 18 17 17
19 19 20 20 20 20 20 20 20 20 20 20 20 19 19 19 19 19 19 19 18 19 19 18 18 19 19 18 18 18 19 19 19 19 18 18 18 17 17 18 18 17 17
20 20 20 20 20 20 20 20 20 20 20 20 20 20 20 19 19 19 19 19 19 18 19 18 19 19 19 19 18 18 18 18 18 18 18 18 18 17 17 18 18 17 17
20 20 20 20 21 20 20 21 21 21 21 21 20 20 19 19 19 19 19 19 19 19 19 19 19 19 19 18 18 18 19 19 18 18 18 18 18 17 17 17 17 18 17
21 20 20 20 21 21 21 20 21 20 20 20 20 20 20 19 19 19 19 19 19 19 19 19 19 19 19 19 18 18 18 18 18 18 18 18 18 17 17 17 17 17 17
21 21 21 20 21 21 21 21 21 20 21 20 20 20 19 19 19 19 19 20 19 19 19 19 19 19 19 19 19 18 19 18 18 18 18 18 17 17 17 17 17 17 17
22 22 22 21 21 21 21 20 20 20 20 20 21 20 19 19 20 19 19 19 19 19 19 19 19 19 19 19 19 19 19 19 19 18 18 17 18 17 17 17 17 17 17
22 22 22 21 21 21 20 20 20 20 20 20 20 20 19 20 20 19 19 19 19 19 18 19 18 19 19 19 19 19 19 19 19 18 18 18 18 18 17 17 17 17 17
22 22 22 21 21 21 21 20 20 20 20 20 20 20 20 19 20 19 19 19 19 19 18 18 18 18 18 18 18 19 19 19 19 18 18 18 18 18 17 17 17 17 17
23 23 22 22 21 21 21 21 20 20 20 20 20 20 20 20 20 19 19 19 19 19 18 18 18 18 18 18 18 19 19 18 18 18 18 18 18 18 17 17 17 17 16
23 23 23 22 21 21 21 20 20 20 20 20 20 20 20 20 20 20 19 19 19 19 18 18 18 18 18 18 18 19 19 18 19 19 18 18 18 18 17 17 17 17 17
24 23 23 22 22 21 21 21 21 21 20 20 20 20 20 20 20 20 20 19 19 18 18 18 18 19 18 18 18 19 19 18 18 18 18 19 18 18 17 17 17 17 17
24 24 23 23 23 22 21 21 21 20 20 20 20 20 21 20 20 20 19 19 19 19 19 18 18 18 18 18 18 19 18 18 18 18 18 18 18 18 18 18 18 17 17
25 25 24 24 23 23 22 21 20 20 20 20 20 20 20 21 20 20 19 19 19 19 18 18 18 18 18 18 18 18 18 18 18 18 17 18 18 18 18 17 17 17 17
25 25 25 24 23 23 23 22 21 20 21 21 21 21 20 20 20 20 19 19 19 19 18 18 19 19 18 18 18 18 19 18 18 18 17 17 18 18 17 17 17 17 17
26 25 25 24 24 23 23 22 21 21 21 21 21 20 21 21 20 20 20 20 19 18 18 19 19 19 19 18 18 18 18 18 18 18 18 17 17 18 17 17 17 17 17
Height
1536 1539 1541 1543 1545 1549 1553 1555 1557 1559 1560 1561 1563 1564 1566 1566 1567 1567 1567 1568 1567 1566 1566 1566 1566 1567 1566 1567 1566 1566 1565 1565 1565 1565 1564 1564 1564 1565 1565 1565 1564 1564 1565
1539 1542 1544 1546 1548 1551 1554 1556 1559 1560 1562 1563 1565 1566 1567 1568 1568 1568 1570 1569 1568 1567 1567 1568 1568 1568 1568 1567 1567 1567 1567 1567 1567 1567 1566 1566 1566 1567 1567 1567 1566 1566 1567
1540 1543 1546 1548 1550 1553 1556 1558 1561 1562 1564 1566 1567 1569 1570 1570 1570 1570 1570 1570 1569 1569 1569 1569 1569 1569 1569 1568 1567 1568 1568 1569 1569 1568 1568 1567 1568 1568 1569 1569 1568 1569 1569
1542 1545 1548 1551 1553 1555 1558 1561 1563 1564 1566 1568 1569 1571 1572 1571 1572 1572 1571 1571 1570 1571 1571 1571 1571 1570 1570 1570 1570 1569 1570 1569 1570 1570 1570 1570 1570 1569 1570 1571 1571 1571 1572
1544 1548 1551 1553 1555 1557 1560 1562 1565 1566 1568 1570 1571 1573 1573 1573 1574 1573 1573 1573 1573 1573 1573 1572 1572 1572 1571 1572 1572 1571 1572 1571 1570 1571 1572 1572 1572 1571 1571 1572 1573 1574 1575
1546 1550 1552 1555 1557 1559 1562 1564 1566 1568 1570 1572 1573 1574 1575 1575 1575 1575 1575 1575 1575 1575 1575 1574 1574 1573 1574 1574 1573 1573 1573 1569 1571 1571 1572 1573 1573 1574 1573 1574 1575 1576 1577
1547 1551 1553 1556 1558 1561 1563 1565 1568 1570 1572 1573 1575 1575 1576 1577 1577 1577 1577 1577 1577 1577 1577 1576 1576 1576 1576 1576 1575 1575 1574 1573 1571 1569 1571 1572 1574 1575 1576 1576 1576 1577 1578
1548 1551 1554 1557 1560 1562 1564 1567 1569 1571 1573 1574 1575 1576 1577 1577 1578 1578 1578 1579 1579 1579 1579 1578 1578 1578 1577 1576 1575 1574 1574 1574 1573 1571 1571 1573 1574 1575 1576 1577 1576 1578 1580
1550 1552 1554 1558 1560 1563 1566 1568 1570 1572 1574 1575 1576 1577 1578 1579 1579 1579 1579 1579 1580 1580 1580 1580 1580 1580 1579 1578 1577 1576 1575 1575 1574 1574 1573 1574 1575 1575 1577 1578 1578 1579 1581
1552 1553 1556 1558 1561 1563 1566 1569 1571 1572 1573 1575 1577 1578 1579 1580 1580 1580 1580 1580 1580 1581 1581 1582 1582 1581 1580 1580 1577 1575 1575 1576 1575 1576 1575 1574 1575 1575 1577 1578 1579 1580 1581
1552 1554 1556 1559 1561 1563 1566 1569 1571 1573 1574 1575 1577 1579 1580 1581 1580 1581 1581 1581 1582 1582 1583 1583 1582 1582 1582 1580 1580 1577 1576 1575 1575 1576 1576 1576 1575 1576 1577 1578 1579 1580 1582
1550 1553 1556 1558 1561 1563 1566 1569 1571 1572 1574 1575 1577 1579 1579 1580 1580 1580 1581 1581 1582 1583 1584 1584 1583 1583 1583 1582 1580 1578 1577 1577 1577 1577 1577 1577 1576 1577 1578 1579 1580 1581 1583
1549 1551 1554 1557 1560 1563 1565 1568 1570 1572 1574 1575 1577 1578 1579 1579 1580 1580 1580 1581 1582 1583 1584 1584 1584 1583 1583 1581 1580 1579 1578 1578 1577 1578 1578 1577 1577 1577 1578 1579 1580 1581 1583
1547 1549 1553 1556 1560 1563 1565 1568 1570 1572 1573 1574 1576 1577 1578 1578 1580 1580 1581 1582 1582 1583 1583 1584 1583 1583 1582 1581 1580 1579 1579 1578 1578 1578 1578 1578 1577 1577 1578 1579 1580 1581 1582
1545 1548 1551 1555 1558 1561 1565 1567 1569 1571 1572 1574 1575 1576 1576 1578 1579 1579 1581 1581 1582 1583 1583 1583 1582 1581 1581 1581 1581 1580 1578 1577 1578 1578 1577 1578 1578 1577 1578 1578 1580 1581 1581
1542 1545 1549 1553 1556 1559 1562 1565 1568 1570 1572 1573 1574 1575 1575 1576 1578 1579 1579 1580 1581 1581 1582 1582 1581 1580 1581 1581 1580 1580 1579 1578 1577 1577 1577 1577 1578 1578 1578 1578 1579 1580 1580
1539 1542 1546 1550 1554 1557 1560 1563 1566 1569 1570 1572 1572 1573 1574 1576 1577 1577 1578 1578 1579 1579 1580 1580 1580 1580 1579 1579 1579 1579 1578 1578 1577 1577 1576 1577 1577 1578 1578 1578 1579 1579 1579
1537 1540 1545 1549 1552 1555 1558 1561 1564 1566 1568 1569 1571 1572 1574 1575 1576 1576 1576 1576 1577 1578 1578 1578 1578 1577 1577 1577 1577 1577 1576 1576 1576 1577 1577 1577 1578 1578 1579 1579 1579 1580 1580
1534 1538 1542 1546 1550 1553 1556 1558 1561 1564 1566 1567 1569 1570 1572 1573 1574 1575 1575 1575 1575 1576 1576 1576 1575 1575 1576 1575 1575 1575 1575 1575 1576 1576 1577 1577 1578 1579 1579 1580 1580 1580 1580
1531 1534 1538 1542 1546 1550 1553 1556 1559 1562 1564 1565 1567 1569 1570 1571 1572 1573 1573 1573 1573 1574 1574 1574 1574 1574 1574 1573 1573 1574 1575 1575 1576 1576 1576 1576 1577 1577 1578 1579 1579 1579 1579
1528 1530 1534 1538 1542 1546 1549 1552 1555 1557 1560 1563 1565 1566 1567 1568 1570 1571 1571 1571 1571 1572 1572 1572 1573 1573 1573 1573 1573 1574 1575 1575 1576 1576 1576 1576 1577 1577 1578 1578 1579 1578 1576
1521 1525 1529 1533 1538 1541 1545 1549 1552 1554 1556 1560 1562 1563 1565 1566 1568 1568 1568 1568 1569 1569 1570 1570 1570 1569 1571 1571 1572 1572 1573 1576 1576 1576 1576 1576 1577 1577 1577 1577 1577 1577 1577
1514 1518 1522 1526 1532 1536 1541 1546 1549 1552 1554 1556 1558 1560 1562 1564 1565 1566 1566 1566 1566 1567 1567 1568 1569 1569 1570 1570 1570 1571 1572 1573 1574 1575 1576 1575 1575 1576 1577 1576 1576 1576 1576
1506 1512 1517 1521 1526 1530 1535 1539 1542 1545 1548 1550 1553 1556 1558 1560 1561 1562 1563 1563 1564 1564 1565 1567 1567 1568 1568 1568 1568 1569 1570 1571 1572 1574 1575 1575 1576 1576 1576 1577 1577 1576 1576
1501 1506 1510 1514 1520 1524 1529 1533 1536 1540 1544 1547 1550 1552 1554 1556 1558 1559 1560 1560 1560 1562 1563 1565 1566 1566 1567 1568 1568 1566 1565 1567 1569 1571 1571 1573 1574 1574 1575 1576 1576 1576 1576
1493 1499 1504 1508 1513 1517 1522 1527 1530 1534 1538 1542 1544 1547 1550 1552 1554 1555 1556 1557 1558 1559 1561 1563 1564 1564 1565 1566 1567 1568 1567 1566 1566 1569 1570 1572 1572 1572 1572 1573 1573 1573 1574
Wind_Speed
29 30 33 33 29 29 31 29 29 30 30 28 24 22 21 20 17 17 16 14 13 14 14 14 14 13 12 12 11 11 12 15 15 14 11 10 11 12 13 11 11 9 11
27 30 29 29 30 32 30 29 28 28 26 24 22 20 20 17 16 16 14 13 13 14 14 14 13 13 13 12 12 12 12 10 10 13 14 10 12 10 10 10 10 11 13
28 30 26 30 31 31 29 27 26 25 23 21 20 19 18 16 15 13 13 13 13 13 13 13 12 12 13 12 11 10 12 11 10 10 13 10 11 10 9 7 10 13 12
31 30 28 29 29 30 28 26 24 23 21 20 19 18 16 15 14 12 12 11 12 12 12 12 12 12 12 12 10 8 9 10 11 10 12 11 8 8 7 10 10 12 13
31 28 27 27 27 27 28 26 24 22 20 19 17 16 15 14 13 12 11 10 11 12 14 13 13 14 12 12 9 8 8 8 12 11 10 11 5 10 11 11 12 14 13
29 26 26 26 25 26 26 24 22 21 18 16 14 14 13 12 12 12 10 11 11 12 14 14 14 14 14 13 11 9 10 8 11 9 8 9 4 7 9 12 11 12 12
28 28 27 25 24 25 25 23 21 19 16 14 12 12 12 12 12 12 12 12 11 12 13 15 15 15 15 15 12 9 7 8 7 5 4 5 4 7 9 12 9 11 10
27 27 26 25 24 23 23 22 20 18 15 12 12 12 12 11 11 12 14 13 12 12 12 13 14 15 14 13 10 9 8 8 11 8 5 5 6 7 8 11 10 10 10
24 26 26 25 23 22 22 21 19 17 14 12 12 11 11 9 10 11 12 12 11 12 11 14 16 15 12 11 9 11 12 6 10 3 5 7 6 7 9 10 9 10 11
22 23 25 25 24 23 22 21 18 16 13 12 11 9 9 8 8 10 10 11 11 11 12 13 13 11 10 10 8 12 5 7 8 3 5 6 7 7 7 9 10 10 10
22 22 24 24 24 22 21 20 18 16 13 12 9 8 6 4 7 8 10 12 11 10 11 11 9 10 8 8 11 10 9 14 10 11 7 5 6 6 7 9 10 11 11
26 23 23 24 23 22 21 20 18 15 13 10 9 8 5 4 3 5 7 8 9 9 7 8 6 5 7 6 8 8 8 12 11 9 9 7 4 5 6 9 11 11 11
20 24 25 25 23 23 22 20 17 15 12 11 10 7 4 2 3 4 7 6 6 6 4 5 6 4 6 6 6 6 8 8 9 7 6 8 5 4 6 7 9 11 11
24 23 25 25 24 23 21 17 14 13 13 13 10 8 6 4 2 3 4 4 3 5 5 6 5 6 5 3 2 2 6 5 4 5 4 5 5 1 7 7 9 10 12
27 25 26 24 24 22 21 15 17 15 14 11 9 7 5 5 2 1 3 2 3 1 2 4 5 4 4 6 7 3 7 5 2 7 7 4 3 3 3 8 10 8 10
29 26 25 23 20 24 22 19 19 14 11 9 11 6 6 9 4 6 3 2 2 2 3 6 5 2 6 3 2 2 2 1 3 5 5 1 0 3 2 4 6 9 8
32 28 26 25 21 22 22 19 16 18 13 12 12 9 9 8 6 3 7 6 5 2 5 5 7 2 4 3 1 0 2 2 3 2 3 4 1 2 2 1 4 5 7
35 34 30 28 26 25 23 24 19 14 16 11 12 9 11 10 6 8 5 7 10 6 6 7 10 7 8 4 3 3 4 3 3 2 2 1 2 2 1 3 2 2 3
37 35 31 32 29 26 27 27 23 19 19 16 12 10 11 12 9 6 4 7 8 8 7 8 5 3 2 7 3 5 5 6 6 5 4 6 4 1 2 1 1 2 4
38 36 33 35 31 26 24 28 26 26 21 20 16 17 17 12 11 10 8 8 10 8 8 4 4 2 1 4 7 7 6 3 6 3 7 4 3 5 6 3 2 2 4
39 37 37 38 33 28 27 25 31 30 28 22 18 15 15 15 13 12 10 9 9 6 3 5 3 6 7 3 4 4 6 3 7 4 8 5 2 3 1 2 2 2 2
42 40 38 37 33 30 28 25 22 19 25 26 20 18 17 16 14 12 10 9 11 11 8 7 7 3 9 5 2 7 8 8 7 11 8 1 1 2 3 5 4 7 7
45 44 41 37 34 32 30 26 24 19 22 24 22 20 16 14 13 13 11 11 13 15 13 10 6 9 10 6 6 5 5 5 11 11 6 4 3 6 4 4 6 6 4
48 44 42 39 37 36 33 30 30 29 27 26 25 22 18 17 16 14 13 14 14 16 14 10 7 12 12 11 10 6 6 8 7 9 11 7 4 1 2 3 3 9 7
53 50 47 44 43 40 36 35 34 33 27 21 25 21 19 20 20 18 15 17 19 16 13 11 8 11 15 13 11 12 14 11 8 11 12 11 7 7 6 4 6 3 6
57 54 51 49 46 43 40 36 37 36 30 26 28 25 21 21 21 20 16 16 13 15 13 12 10 10 15 14 13 13 11 15 12 9 8 7 4 7 12 9 9 8 6
Wind_Direction
130 136 138 138 138 137 135 131 128 129 127 127 125 120 117 112 112 108 100 95 85 77 72 71 77 81 89 95 104 103 109 105 86 75 74 103 116 126 130 119 110 110 115
137 141 138 138 136 138 140 134 131 127 125 125 120 116 111 110 106 99 94 84 76 69 64 66 70 79 85 101 115 104 100 113 94 75 66 101 119 125 122 122 113 115 118
145 147 141 139 140 144 145 138 134 127 126 122 118 113 111 109 102 96 90 83 72 64 61 66 69 74 82 95 114 109 95 81 81 75 60 80 122 114 102 114 120 124 123
142 144 143 143 145 147 146 142 137 131 127 121 114 113 113 107 99 88 82 81 71 61 62 64 70 73 82 91 104 117 96 69 80 82 60 59 114 131 125 122 121 127 121
146 144 146 146 147 148 150 147 141 133 128 121 115 113 109 105 95 83 78 76 62 59 63 64 69 70 73 89 102 110 88 83 98 86 61 47 90 125 130 129 121 119 125
151 151 150 151 150 152 154 150 144 138 135 126 118 115 110 100 81 70 73 71 60 61 66 72 76 74 74 76 86 99 93 101 96 88 61 49 67 142 127 129 129 132 130
153 156 155 155 155 157 157 156 150 146 143 132 127 115 105 91 74 69 70 63 63 61 65 74 82 81 80 75 82 86 84 96 94 84 85 73 106 143 138 141 137 141 133
154 158 158 158 160 160 161 161 157 154 147 143 129 113 103 87 77 78 65 63 63 63 73 79 90 93 91 89 77 96 81 84 74 96 109 121 132 157 151 153 141 144 145
162 162 162 163 163 165 167 167 164 159 155 147 130 116 105 99 83 89 66 64 71 72 82 92 89 86 84 74 73 64 82 73 346 96 108 136 142 158 166 163 154 152 156
165 168 168 168 167 169 173 174 169 167 164 151 139 128 121 99 91 83 76 74 86 92 99 97 91 81 72 77 50 10 59 52 22 357 71 121 138 156 173 174 168 162 164
174 175 173 174 173 176 176 173 174 172 166 154 145 142 139 118 107 91 89 91 93 98 95 92 91 80 68 40 52 23 35 52 34 89 67 92 130 154 180 180 175 167 168
176 181 181 179 179 179 178 177 174 169 162 161 152 154 147 124 109 103 66 104 91 106 89 91 94 58 73 48 47 37 61 78 72 75 69 65 123 148 186 187 180 179 179
176 180 185 183 181 181 177 175 170 165 167 168 170 171 155 119 24 151 85 61 76 79 69 61 60 61 12 35 28 37 81 73 83 62 50 46 59 193 191 190 185 187 187
179 176 184 183 183 181 174 173 169 173 164 169 159 168 172 117 97 73 75 70 57 35 39 40 17 26 5 34 77 76 29 17 57 56 40 22 39 65 205 199 198 192 192
184 180 174 177 190 188 175 173 174 165 170 172 167 163 161 174 174 307 269 58 53 40 344 18 350 2 27 94 92 105 13 31 73 8 327 319 29 54 196 208 211 204 199
188 189 182 184 187 182 173 167 172 177 182 195 202 190 196 199 253 262 254 230 250 316 300 333 335 277 128 110 84 347 251 260 322 307 314 287 275 10 42 203 216 216 207
198 195 193 195 198 190 187 180 189 206 214 207 208 195 209 227 271 303 259 233 216 267 257 302 319 169 215 261 141 70 103 82 258 353 20 202 240 317 31 105 201 211 227
198 198 198 197 202 198 194 193 200 205 203 198 196 190 213 225 251 283 291 245 226 249 250 286 293 259 216 205 246 213 201 244 159 60 88 120 119 125 7 17 93 126 203
201 199 199 199 205 200 200 202 203 210 199 211 213 203 228 231 248 253 265 224 241 271 273 304 289 203 297 298 244 205 169 133 142 113 144 123 125 77 174 198 188 266 244
204 203 201 202 205 203 205 212 212 213 207 218 222 231 237 235 259 261 258 283 248 254 293 271 194 259 353 114 155 169 151 127 144 131 156 148 152 76 142 143 248 273 276
205 205 206 204 205 204 202 209 218 223 217 219 222 228 247 236 248 257 262 279 236 246 276 228 248 306 169 140 106 184 185 140 164 164 171 172 236 290 22 339 152 339 272
206 207 205 209 206 206 209 216 213 216 216 214 223 231 230 234 248 253 261 278 231 231 232 223 259 202 164 157 239 189 172 157 149 167 180 354 138 319 324 339 307 296 278
205 207 209 211 213 212 213 219 218 215 208 209 217 218 225 234 247 247 259 258 233 225 235 230 251 179 169 158 113 160 153 173 172 179 193 145 67 61 14 335 25 23 48
212 216 216 218 216 219 222 217 217 218 216 217 221 225 222 232 238 243 249 252 231 229 229 236 250 196 187 183 162 135 168 187 176 190 195 196 173 108 343 250 23 35 42
213 215 218 219 218 222 223 225 222 225 232 237 226 215 232 232 235 236 247 239 235 230 227 237 228 205 204 199 191 180 189 191 178 183 198 204 216 241 237 273 256 1 16
214 215 216 216 219 222 223 227 229 232 232 234 217 217 217 220 232 234 242 231 228 232 235 234 224 221 211 212 210 206 195 184 179 178 170 173 207 238 241 237 258 273 294